[[{"header":{"parameterUnit":"m.s-1","parameterCategory":1,"la1":30.2991,"la2":30.254,"lo1":-89.0895,"lo2":-89.0444,"dy":0.0017,"dx":0.0017,"nx":28,"ny":28,"refTime":"2024-04-15T09:00:00:Z","depth":0,"parameterNumber":2,"parameterNumberName":"U-component_of_WINDS"},"data":[0,0,0,0,0,0,0,0,0,0,0,0,0,0,0,0,0,0,0,0,0,0,0,0,0,0,0,0,0,0,0,0,0,0,0,0,0,0,0,0,0,0,0,0,0,0,0,0,0,0,0,0,0,0,0,0,0,0,-2.3146,-2.3146,0,-2.3183,-2.3183,-2.3184,-2.3194,-2.3194,-2.3193,-2.3193,-2.3229,-2.3231,-2.3232,0,0,0,0,0,0,0,0,0,0,0,0,0,-2.3082,-2.3083,-2.3146,-2.3146,-2.3147,-2.3183,-2.3183,-2.3184,-2.3194,-2.3194,-2.3193,-2.3193,-2.3229,-2.323,-2.3232,0,0,0,0,0,0,0,0,0,0,0,0,0,-2.3114,-2.3084,-2.3146,-2.3156,-2.3157,-2.3183,-2.3183,-2.3184,-2.3194,-2.3194,-2.3193,-2.3193,-2.3229,-2.323,-2.3232,-2.3249,0,0,-2.3237,-2.3238,0,0,0,0,0,0,0,0,-2.3112,-2.3116,-2.3154,-2.3155,-2.3157,-2.3183,-2.3174,-2.3206,-2.3194,-2.318,-2.3193,-2.3193,-2.3214,-2.3217,-2.3225,-2.3251,-2.3252,-2.3237,-2.3239,-2.3239,-2.324,0,0,0,0,0,0,0,-2.311,-2.3114,-2.316,-2.3154,-2.3156,-2.3159,-2.3163,-2.318,-2.3198,-2.3181,-2.3182,-2.3186,-2.3215,-2.3223,-2.3226,-2.3253,-2.3237,-2.3239,-2.324,-2.3241,-2.3296,-2.3296,0,0,0,0,0,0,-2.3106,-2.3113,-2.3159,-2.3161,-2.3133,-2.316,-2.3164,-2.3175,-2.3198,-2.3201,-2.3187,-2.3187,-2.322,-2.3224,-2.3227,-2.3249,-2.3239,-2.3241,-2.3242,-2.3295,-2.3296,-2.3296,0,0,0,0,0,0,-2.3105,-2.311,-2.3158,-2.3137,-2.3144,-2.3161,-2.3173,-2.3176,-2.3184,-2.3202,-2.3205,-2.3192,-2.322,-2.3225,-2.3244,-2.325,-2.3242,-2.3243,-2.3295,-2.3295,-2.3296,-2.3292,0,0,0,0,0,0,-2.3103,-2.3109,-2.3116,-2.3137,-2.3145,-2.3174,-2.3174,-2.3177,-2.3187,-2.3188,-2.3208,-2.3211,-2.322,-2.3241,-2.3246,-2.3252,-2.3245,-2.3294,-2.3295,-2.3296,-2.3292,-2.3293,-2.3293,0,0,0,0,0,-2.31,-2.3113,-2.3116,-2.3122,-2.3153,-2.3174,-2.3178,-2.3189,-2.3188,-2.3195,-2.3207,-2.321,-2.3249,-2.3243,-2.3248,-2.3256,-2.3294,-2.3295,-2.3296,-2.3292,-2.3293,-2.3293,0,0,0,0,0,0,-2.3091,-2.3116,-2.312,-2.314,-2.3155,-2.3176,-2.3185,-2.319,-2.3205,-2.3205,-2.3218,-2.3222,-2.3241,-2.325,-2.3243,-2.3274,-2.3272,-2.3273,-2.3267,-2.3268,-2.3269,-2.3265,-2.3246,0,0,0,0,0,-2.3092,-2.3107,-2.3128,-2.3143,-2.3151,-2.3167,-2.3176,-2.3184,-2.3199,-2.3206,-2.3219,-2.3234,-2.3249,-2.3259,-2.3275,-2.3294,-2.3298,-2.3302,-2.3302,-2.3303,-2.3304,-2.3316,-2.3317,-2.3299,-2.3299,-2.3299,0,0,-2.3092,-2.3108,-2.3116,-2.3142,-2.3154,-2.317,-2.3172,-2.3188,-2.3199,-2.3208,-2.3227,-2.3237,-2.3255,-2.3274,-2.3284,-2.3283,-2.331,-2.3304,-2.3304,-2.3305,-2.3317,-2.3318,-2.332,-2.33,-2.33,-2.33,0,0,-2.3101,-2.3115,-2.3129,-2.3142,-2.3162,-2.3173,-2.3176,-2.3197,-2.3204,-2.3224,-2.3231,-2.3245,-2.3271,-2.3284,-2.3294,-2.3309,-2.3313,-2.3314,-2.3317,-2.3328,-2.333,-2.3331,-2.3337,-2.3338,-2.3315,-2.3315,-2.3315,0,-2.3099,-2.3123,-2.3136,-2.3152,-2.3163,-2.3173,-2.3188,-2.32,-2.3223,-2.323,-2.323,-2.3264,-2.3276,-2.3299,-2.3303,-2.3311,-2.3315,-2.3311,-2.3329,-2.333,-2.3331,-2.3337,-2.3339,-2.3315,-2.3315,-2.3315,-2.3315,0,-2.312,-2.3136,-2.3146,-2.3169,-2.3182,-2.3197,-2.3212,-2.3223,-2.323,-2.3241,-2.3261,-2.3277,-2.3296,-2.3302,-2.3308,-2.3326,-2.3325,-2.3326,-2.3324,-2.3333,-2.3338,-2.334,-2.3315,-2.3315,-2.3315,-2.3315,0,0,-2.3123,-2.3154,-2.3157,-2.3168,-2.3191,-2.3204,-2.322,-2.324,-2.3249,-2.3265,-2.3279,-2.3302,-2.3304,-2.3315,-2.3323,-2.3333,-2.3344,-2.3333,-2.3334,-2.3334,-2.3365,-2.3363,-2.3365,-2.3348,-2.3348,-2.3348,-2.3363,0,-2.3134,-2.3164,-2.3177,-2.32,-2.3216,-2.3226,-2.324,-2.3256,-2.3267,-2.3281,-2.3293,-2.331,-2.3311,-2.3318,-2.3328,-2.3341,-2.335,-2.334,-2.336,-2.336,-2.3354,-2.3368,-2.3366,-2.3379,-2.3365,-2.3366,-2.3366,0,-2.3152,-2.3169,-2.3194,-2.3216,-2.3223,-2.3236,-2.3255,-2.3269,-2.3287,-2.3294,-2.3308,-2.3316,-2.3333,-2.3331,-2.3355,-2.3347,-2.3357,-2.3364,-2.3365,-2.3366,-2.3363,-2.3369,-2.3384,-2.3385,-2.3369,-2.3369,-2.3369,0,-2.3151,-2.318,-2.32,-2.3209,-2.3235,-2.3243,-2.3255,-2.3273,-2.3284,-2.3301,-2.3308,-2.3327,-2.3337,-2.3351,-2.3364,-2.3361,-2.3387,-2.3385,-2.3393,-2.3392,-2.3397,-2.3396,-2.3412,-2.3404,-2.3404,-2.3404,-2.3404,0,-2.3162,-2.3177,-2.32,-2.3211,-2.3229,-2.3244,-2.326,-2.3272,-2.3288,-2.3302,-2.3313,-2.3326,-2.3342,-2.3357,-2.3367,-2.3386,-2.339,-2.3397,-2.3399,-2.3395,-2.3394,-2.3401,-2.34,-2.3404,-2.3404,-2.3404,-2.3404,0,-2.3164,-2.318,-2.3201,-2.3225,-2.3231,-2.3243,-2.3263,-2.3275,-2.3287,-2.3304,-2.3309,-2.3328,-2.3347,-2.3361,-2.3385,-2.3392,-2.3411,-2.3414,-2.3405,-2.3406,-2.3413,-2.3412,-2.3433,-2.3437,-2.3426,-2.3426,-2.3427,0,-2.317,-2.3182,-2.3207,-2.3218,-2.3229,-2.3246,-2.3258,-2.3273,-2.3285,-2.3307,-2.3316,-2.3336,-2.3352,-2.3381,-2.3396,-2.3415,-2.3418,-2.3424,-2.3421,-2.3417,-2.3418,-2.3417,-2.3418,-2.3424,-2.3424,-2.3424,-2.3424,0,-2.3179,-2.3186,-2.3203,-2.3223,-2.3237,-2.3253,-2.327,-2.3278,-2.3296,-2.3309,-2.3329,-2.3341,-2.3366,-2.3385,-2.3406,-2.3417,-2.3424,-2.3426,-2.3428,-2.3424,-2.3418,-2.3421,-2.3406,-2.3425,-2.3425,-2.3425,-2.3424,-2.3424,-2.3182,-2.3194,-2.3214,-2.3232,-2.3247,-2.3262,-2.3274,-2.3289,-2.3305,-2.3327,-2.3335,-2.3355,-2.3374,-2.3402,-2.3414,-2.343,-2.343,-2.3434,-2.3435,-2.3435,-2.3435,-2.3417,-2.3433,-2.3433,-2.3433,-2.3433,-2.3433,0,-2.3191,-2.3205,-2.3222,-2.3246,-2.326,-2.3266,-2.3285,-2.3297,-2.3315,-2.3332,-2.3348,-2.3371,-2.339,-2.3407,-2.3427,-2.3436,-2.344,-2.3441,-2.344,-2.3442,-2.3433,-2.3429,-2.3438,-2.3438,-2.3438,-2.3438,-2.3438,-2.3438,-2.3198,-2.3218,-2.3228,-2.3255,-2.3268,-2.3288,-2.3298,-2.3313,-2.3327,-2.3352,-2.3368,-2.3379,-2.3397,-2.3418,-2.3436,-2.3441,-2.3447,-2.3447,-2.3453,-2.3444,-2.3443,-2.3442,-2.3438,-2.3449,-2.3449,-2.346,-2.346,-2.346]},{"header":{"parameterUnit":"m.s-1","parameterCategory":1,"la1":30.2991,"la2":30.254,"lo1":-89.0895,"lo2":-89.0444,"dy":0.0017,"dx":0.0017,"nx":28,"ny":28,"refTime":"2024-04-15T09:00:00:Z","depth":0,"parameterNumber":3,"parameterNumberName":"V-component_of_WINDS"},"data":[0,0,0,0,0,0,0,0,0,0,0,0,0,0,0,0,0,0,0,0,0,0,0,0,0,0,0,0,0,0,0,0,0,0,0,0,0,0,0,0,0,0,0,0,0,0,0,0,0,0,0,0,0,0,0,0,0,0,4.572,4.572,0,4.574,4.574,4.5741,4.566,4.5658,4.5656,4.5653,4.567,4.5673,4.5675,0,0,0,0,0,0,0,0,0,0,0,0,0,4.5611,4.5613,4.572,4.572,4.5721,4.574,4.574,4.5741,4.5661,4.5658,4.5655,4.5652,4.5669,4.5673,4.5676,0,0,0,0,0,0,0,0,0,0,0,0,0,4.5647,4.5614,4.572,4.5683,4.568,4.574,4.574,4.5741,4.5661,4.5658,4.5654,4.5651,4.5668,4.5672,4.5676,4.5771,0,0,4.5688,4.569,0,0,0,0,0,0,0,0,4.5645,4.5651,4.5688,4.5686,4.5683,4.5694,4.5708,4.5751,4.5662,4.5668,4.5653,4.5649,4.5681,4.5684,4.5695,4.5772,4.5773,4.5689,4.5691,4.5693,4.5694,0,0,0,0,0,0,0,4.5643,4.565,4.5728,4.5689,4.5686,4.5665,4.5666,4.5716,4.5694,4.5668,4.5662,4.5666,4.5679,4.5691,4.5695,4.5773,4.5688,4.5692,4.5694,4.5696,4.5931,4.5935,0,0,0,0,0,0,4.5646,4.5649,4.5727,4.5728,4.5655,4.567,4.5671,4.5694,4.5693,4.569,4.5669,4.5662,4.5686,4.569,4.5695,4.5808,4.5693,4.5696,4.5699,4.5927,4.5932,4.5936,0,0,0,0,0,0,4.5644,4.5653,4.5726,4.5687,4.5695,4.5676,4.5702,4.5696,4.5709,4.5694,4.569,4.5686,4.5684,4.5689,4.5754,4.5807,4.5698,4.5702,4.5923,4.5929,4.5934,4.6033,0,0,0,0,0,0,4.5641,4.5653,4.5689,4.5689,4.5697,4.5786,4.5705,4.5699,4.5716,4.5708,4.5709,4.5706,4.5681,4.5748,4.5758,4.5811,4.5705,4.5918,4.5926,4.5932,4.6025,4.6042,4.6056,0,0,0,0,0,4.5637,4.5715,4.5692,4.5702,4.5742,4.5789,4.5794,4.5765,4.5721,4.5757,4.5748,4.5706,4.58,4.5755,4.5765,4.582,4.5914,4.5923,4.5932,4.6018,4.6039,4.6056,0,0,0,0,0,0,4.5721,4.5714,4.5688,4.5768,4.578,4.5775,4.582,4.5787,4.581,4.5801,4.5763,4.5764,4.5836,4.5834,4.5785,4.5914,4.5849,4.5861,4.5912,4.5931,4.5946,4.5945,4.5708,0,0,0,0,0,4.5749,4.5788,4.578,4.5851,4.5859,4.5839,4.5858,4.5835,4.5845,4.5849,4.5844,4.5855,4.5887,4.5909,4.5937,4.6025,4.6024,4.6068,4.6083,4.6096,4.6106,4.6154,4.6173,4.5965,4.5965,4.5965,0,0,4.5806,4.5808,4.5835,4.5868,4.5875,4.5916,4.5843,4.5889,4.5919,4.5856,4.5917,4.5914,4.5923,4.6,4.6034,4.6001,4.6164,4.6107,4.6117,4.612,4.6165,4.6185,4.6202,4.5971,4.597,4.5969,0,0,4.5933,4.5938,4.5999,4.6008,4.6019,4.6006,4.6021,4.6022,4.6018,4.6079,4.6033,4.6068,4.6124,4.6133,4.6145,4.6278,4.6241,4.6289,4.6369,4.6416,4.6433,4.6447,4.6496,4.6514,4.6299,4.6299,4.6299,0,4.6003,4.6064,4.6034,4.6085,4.6101,4.6048,4.611,4.6119,4.6139,4.6151,4.6115,4.6186,4.6188,4.6267,4.63,4.6311,4.6327,4.6288,4.6433,4.6447,4.646,4.6506,4.6525,4.6305,4.6304,4.6303,4.6303,0,4.615,4.6194,4.6242,4.6265,4.6287,4.6343,4.6321,4.6347,4.6323,4.6313,4.6377,4.6378,4.6407,4.6424,4.64,4.6501,4.6481,4.644,4.6374,4.6486,4.6529,4.6547,4.6313,4.6311,4.6309,4.6308,0,0,4.6328,4.6336,4.6355,4.6365,4.6376,4.6408,4.6462,4.6492,4.6516,4.6531,4.6576,4.6626,4.6589,4.6602,4.6579,4.6621,4.6728,4.6574,4.6574,4.6604,4.6841,4.6873,4.6894,4.6704,4.6707,4.6709,4.6841,0,4.6453,4.6547,4.6523,4.6616,4.6657,4.6608,4.6655,4.6666,4.6659,4.6692,4.6683,4.672,4.6667,4.6676,4.6715,4.6707,4.6776,4.6697,4.6745,4.6747,4.6745,4.6916,4.6949,4.7072,4.6857,4.686,4.6862,0,4.6611,4.6637,4.6735,4.6741,4.6757,4.68,4.6827,4.6859,4.6871,4.6863,4.688,4.6849,4.6903,4.6838,4.6911,4.6858,4.6876,4.6876,4.688,4.6883,4.6811,4.6925,4.7111,4.713,4.6888,4.6886,4.6884,0,4.6733,4.6791,4.6858,4.6868,4.6877,4.6908,4.6913,4.6922,4.6942,4.6966,4.6979,4.7007,4.7023,4.7046,4.7024,4.6978,4.7101,4.7034,4.7096,4.7097,4.7124,4.7123,4.7317,4.7135,4.7135,4.7134,4.7134,0,4.6875,4.6938,4.6913,4.6954,4.7023,4.6994,4.7063,4.7061,4.7071,4.711,4.7069,4.7107,4.7075,4.7111,4.7094,4.7158,4.7165,4.716,4.7155,4.7164,4.7165,4.7176,4.7167,4.7139,4.7138,4.7137,4.7136,0,4.7022,4.7008,4.7078,4.7082,4.7084,4.7135,4.7137,4.7175,4.7166,4.7218,4.7228,4.7214,4.7253,4.7234,4.7274,4.7263,4.7346,4.7329,4.7343,4.7339,4.7403,4.7397,4.7611,4.7638,4.7438,4.744,4.7442,0,4.7114,4.7162,4.7171,4.7196,4.7205,4.7245,4.7266,4.7241,4.7265,4.7284,4.732,4.7357,4.7385,4.7451,4.7444,4.7475,4.7459,4.7531,4.7463,4.7472,4.7461,4.7459,4.7464,4.7545,4.7547,4.7549,4.7551,0,4.728,4.7272,4.7305,4.7338,4.7366,4.7389,4.7409,4.7431,4.7407,4.7436,4.7477,4.75,4.7543,4.758,4.7608,4.7612,4.7578,4.7573,4.7589,4.7599,4.7606,4.7605,4.7381,4.7568,4.7566,4.7565,4.7564,4.7563,4.7403,4.7444,4.7458,4.7497,4.751,4.7531,4.7568,4.7565,4.76,4.7634,4.7617,4.7665,4.7678,4.7712,4.7721,4.7759,4.773,4.7753,4.7759,4.7765,4.7775,4.76,4.7763,4.7763,4.7762,4.7762,4.7762,0,4.7567,4.7575,4.7612,4.7643,4.7674,4.7642,4.7663,4.7691,4.7735,4.775,4.778,4.7829,4.7865,4.7862,4.7896,4.7927,4.7912,4.7936,4.7934,4.7936,4.7798,4.7781,4.7948,4.7948,4.7948,4.7948,4.7948,4.7948,4.7656,4.7724,4.7718,4.7793,4.7799,4.7848,4.7863,4.7882,4.7895,4.7952,4.7983,4.7981,4.799,4.8024,4.8056,4.8054,4.8069,4.81,4.8092,4.7964,4.7945,4.7928,4.7912,4.8103,4.8103,4.8227,4.8228,4.8229]}]]